DW2819 Weather Reports


time (UTC)temp
F
wind
direction
speed
knots
gust
knots
rain 1hr
in
rain 24hr
in
rain mn
in
humidity
%
barometer
mb
20210920060654 44 147 1.7 7.8 0.00 0.00 0.00 76 1026.3
20210920060147 44 63 0.9 7.8 0.00 0.00 0.00 76 1026.3
20210920055646 44 86 0.9 6.1 0.00 0.00 0.00 77 1026.3
20210920055142 44 107 2.6 5.2 0.00 0.00 0.00 76 1026.3
20210920054635 44 56 0.0 5.2 0.00 0.00 0.00 77 1026.3
20210920054138 44 62 0.0 5.2 0.00 0.00 0.00 77 1026.4
20210920053636 44 61 0.0 5.2 0.00 0.00 0.00 78 1026.3
20210920053134 44 55 0.0 6.1 0.00 0.00 0.00 77 1026.3
20210920052633 44 56 1.7 6.1 0.00 0.00 0.00 77 1026.3
20210920052135 44 62 0.9 4.3 0.00 0.00 0.00 77 1026.3
20210920051629 43 58 0.9 3.5 0.00 0.00 0.00 78 1026.3
20210920051130 43 58 0.0 3.5 0.00 0.00 0.00 78 1026.3
20210920050630 43 63 0.0 5.2 0.00 0.00 0.00 78 1026.2
20210920050129 43 63 1.7 5.2 0.00 0.00 0.00 77 1026.1
20210920045629 43 61 0.9 3.5 0.00 0.00 0.00 78 1026.3
20210920045129 43 61 0.0 7.8 0.00 0.00 0.00 78 1026.2
20210920044627 43 61 0.9 7.8 0.00 0.00 0.00 78 1026.2
20210920044126 43 35 0.0 1.7 0.00 0.00 0.00 79 1026.2
20210920043624 43 65 0.0 4.3 0.00 0.00 0.00 78 1026.2
20210920043117 43 65 0.0 4.3 0.00 0.00 0.00 78 1026.3
20210920042612 43 69 0.0 6.1 0.00 0.00 0.00 78 1026.2
20210920042111 43 69 1.7 6.1 0.00 0.00 0.00 79 1026.2
20210920041610 43 68 0.9 5.2 0.00 0.00 0.00 79 1026.3
20210920041109 43 69 0.0 5.2 0.00 0.00 0.00 79 1026.2
20210920040606 43 69 0.0 5.2 0.00 0.00 0.00 79 1026.2
20210920040108 43 68 0.0 2.6 0.00 0.00 0.00 79 1026.3
20210920035603 43 68 0.0 5.2 0.00 0.00 0.00 79 1026.3
20210920035103 43 68 2.6 5.2 0.00 0.00 0.00 79 1026.3
20210920034603 43 45 0.0 0.0 0.00 0.00 0.00 80 1026.3
20210920034103 43 45 0.0 3.5 0.00 0.00 0.00 79 1026.2
20210920033600 43 47 0.9 3.5 0.00 0.00 0.00 79 1026.3
20210920033057 43 58 0.0 4.3 0.00 0.00 0.00 79 1026.2
20210920032557 43 58 1.7 4.3 0.00 0.00 0.00 79 1026.2
20210920032056 43 66 0.0 4.3 0.00 0.00 0.00 79 1026.2
20210920031557 43 66 0.9 4.3 0.00 0.00 0.00 79 1026.2
20210920031057 43 68 0.0 4.3 0.00 0.00 0.00 80 1026.2
20210920030556 43 66 0.9 4.3 0.00 0.00 0.00 79 1026.2
20210920030057 43 72 0.0 2.6 0.00 0.00 0.00 80 1026.2
20210920025555 43 75 0.0 4.3 0.00 0.00 0.00 80 1026.2
20210920025055 43 75 0.0 5.2 0.00 0.00 0.00 80 1026.2
20210920024553 43 80 1.7 5.2 0.00 0.00 0.00 80 1026.2
20210920024049 43 51 0.9 4.3 0.00 0.00 0.00 80 1026.1
20210920023543 43 51 0.0 1.7 0.00 0.00 0.00 80 1026.1
20210920023044 43 52 0.0 5.2 0.00 0.00 0.00 80 1026.1
20210920022538 43 59 0.0 5.2 0.00 0.00 0.00 80 1026.1
20210920022039 43 41 0.0 5.2 0.00 0.00 0.00 80 1026.1
20210920021537 43 71 1.7 4.3 0.00 0.00 0.00 80 1026.1
20210920021038 43 76 0.0 3.5 0.00 0.00 0.00 80 1026.1
20210920020533 43 86 0.0 6.1 0.00 0.00 0.00 80 1026.1
20210920020036 43 89 0.9 6.1 0.00 0.00 0.00 80 1026.0
20210920015534 43 68 1.7 4.3 0.00 0.00 0.00 80 1026.1
20210920015039 43 62 0.0 5.2 0.00 0.00 0.00 80 1026.1
20210920014531 43 63 0.9 5.2 0.00 0.00 0.00 80 1026.1
20210920014032 43 65 0.9 3.5 0.00 0.00 0.00 80 1026.1
20210920013537 43 65 0.0 2.6 0.00 0.00 0.00 80 1026.1
20210920013030 43 65 0.0 4.3 0.00 0.00 0.00 80 1026.1
20210920012531 43 63 1.7 4.3 0.00 0.00 0.00 80 1026.1
20210920012038 43 61 0.0 4.3 0.00 0.00 0.00 80 1026.2
20210920011532 43 85 0.9 3.5 0.00 0.00 0.00 80 1026.2
20210920011034 43 85 0.0 3.5 0.00 0.00 0.00 80 1026.2
20210920010538 43 87 0.0 0.9 0.00 0.00 0.00 80 1026.2
20210920010032 43 89 0.0 3.5 0.00 0.00 0.00 80 1026.2
20210920005534 43 66 0.0 3.5 0.00 0.00 0.00 80 1026.2
20210920005031 43 66 0.0 3.5 0.00 0.00 0.00 80 1026.1
20210920004532 43 66 0.0 1.7 0.00 0.00 0.00 80 1026.1
20210920004031 43 66 0.0 4.3 0.00 0.00 0.00 79 1026.2
20210920003535 43 66 0.0 4.3 0.00 0.00 0.00 80 1026.2
20210920003031 43 68 0.0 0.0 0.00 0.00 0.00 80 1026.1
20210920002534 43 68 0.0 4.3 0.00 0.00 0.00 79 1026.1
20210920002032 43 68 0.9 4.3 0.00 0.00 0.00 80 1026.0
20210920001531 43 66 0.0 4.3 0.00 0.00 0.00 79 1026.0
20210920001030 44 66 0.0 3.5 0.00 0.00 0.00 79 1026.0
20210920000530 44 61 0.0 3.5 0.00 0.00 0.00 79 1026.0
20210920000030 44 62 0.0 3.5 0.00 0.00 0.00 79 1026.0
20210919235522 44 66 0.0 3.5 0.00 0.00 0.00 79 1025.9
20210919235025 44 69 0.9 3.5 0.00 0.00 0.00 79 1026.0
20210919234524 44 72 0.9 3.5 0.00 0.00 0.00 78 1026.0
20210919234029 44 76 0.0 2.6 0.00 0.00 0.00 79 1026.0
20210919233515 44 78 0.0 3.5 0.00 0.00 0.00 79 1026.0
20210919233022 44 62 0.0 4.3 0.00 0.00 0.00 78 1026.1
20210919232511 44 59 0.0 4.3 0.00 0.00 0.00 78 1026.1
20210919232014 43 42 0.0 3.5 0.00 0.00 0.00 79 1026.1
20210919231508 44 42 0.9 3.5 0.00 0.00 0.00 78 1026.1
20210919231016 44 68 0.0 2.6 0.00 0.00 0.00 79 1026.1
20210919230508 44 72 0.0 2.6 0.00 0.00 0.00 78 1026.0
20210919230008 44 65 0.0 2.6 0.00 0.00 0.00 78 1026.0
20210919225503 44 65 0.0 3.5 0.00 0.00 0.00 78 1026.1
20210919225012 44 68 0.9 6.1 0.00 0.00 0.00 78 1026.1
20210919224503 44 59 0.9 6.1 0.00 0.00 0.00 78 1026.1
20210919224001 44 66 0.0 3.5 0.00 0.00 0.00 78 1026.1
20210919223500 44 66 0.0 3.5 0.00 0.00 0.00 78 1026.1
20210919222958 44 65 0.0 3.5 0.00 0.00 0.00 77 1026.2
20210919222501 44 65 0.0 3.5 0.00 0.00 0.00 77 1026.3
20210919222001 44 63 0.0 4.3 0.00 0.00 0.00 77 1026.2
20210919221455 44 65 0.0 4.3 0.00 0.00 0.00 77 1026.2
20210919220957 44 68 0.0 3.5 0.00 0.00 0.00 77 1026.2
20210919220452 44 62 0.9 3.5 0.00 0.00 0.00 77 1026.2
20210919215951 44 65 0.9 4.3 0.00 0.00 0.00 77 1026.2
20210919215453 44 65 0.0 4.3 0.00 0.00 0.00 76 1026.1
20210919214950 44 274 0.0 4.3 0.00 0.00 0.00 77 1026.1
20210919214451 44 66 0.0 4.3 0.00 0.00 0.00 76 1026.1
20210919213948 44 71 0.9 3.5 0.00 0.00 0.00 76 1026.1
20210919213450 44 71 0.0 3.5 0.00 0.00 0.00 77 1026.1
20210919212948 44 69 0.9 3.5 0.00 0.00 0.00 76 1026.1
20210919212448 44 66 0.0 2.6 0.00 0.00 0.00 76 1026.1
20210919211949 44 66 0.0 6.1 0.00 0.00 0.00 75 1026.1
20210919211449 44 66 0.9 6.1 0.00 0.00 0.00 75 1026.0
20210919210949 44 62 0.9 5.2 0.00 0.00 0.00 75 1026.1
20210919210446 44 83 0.0 4.3 0.00 0.00 0.00 75 1026.1
20210919205946 44 63 0.0 3.5 0.00 0.00 0.00 75 1026.0
20210919205447 44 65 0.0 5.2 0.00 0.00 0.00 74 1026.1
20210919204945 44 65 0.0 5.2 0.00 0.00 0.00 74 1026.0
20210919204440 44 65 0.0 4.3 0.00 0.00 0.00 74 1026.2
20210919203939 44 62 0.9 4.3 0.00 0.00 0.00 74 1026.2
20210919203434 44 56 0.0 4.3 0.00 0.00 0.00 74 1026.2
20210919202933 44 56 0.0 7.8 0.00 0.00 0.00 74 1026.2
20210919202432 45 65 0.9 7.8 0.00 0.00 0.00 74 1026.1
20210919201933 45 61 2.6 6.1 0.00 0.00 0.00 73 1026.2
20210919201429 45 83 0.0 5.2 0.00 0.00 0.00 73 1026.1
20210919200927 45 85 0.9 5.2 0.00 0.00 0.00 73 1026.1
20210919200427 45 66 1.7 8.7 0.00 0.00 0.00 73 1026.2
20210919195924 45 66 2.6 8.7 0.00 0.00 0.00 73 1026.2
20210919195423 45 18 2.6 6.1 0.00 0.00 0.00 74 1026.0
20210919194924 45 72 1.7 6.1 0.00 0.00 0.00 75 1026.0
20210919194417 45 66 0.0 6.1 0.00 0.00 0.00 76 1026.0
20210919193914 45 97 0.0 4.3 0.00 0.00 0.00 75 1025.9
20210919193409 45 99 0.0 7.8 0.00 0.00 0.00 76 1025.8
20210919192906 46 117 0.9 7.8 0.00 0.00 0.00 76 1025.8
20210919192403 46 52 1.7 4.3 0.00 0.00 0.00 76 1025.8
20210919191903 46 51 1.7 5.2 0.00 0.00 0.00 76 1025.7
20210919191406 46 82 0.9 8.7 0.00 0.00 0.00 76 1025.8
20210919190904 46 59 0.9 8.7 0.00 0.00 0.00 76 1025.6
20210919190406 46 61 0.0 4.3 0.00 0.00 0.00 77 1025.7
20210919185858 46 59 0.0 4.3 0.00 0.00 0.00 77 1025.7
20210919185353 46 69 0.0 3.5 0.00 0.00 0.00 77 1025.6
20210919184853 46 73 0.0 4.3 0.00 0.00 0.00 76 1025.7
20210919184352 46 69 1.7 4.3 0.00 0.00 0.00 76 1025.7
20210919183850 46 54 0.0 5.2 0.00 0.00 0.00 76 1025.5
20210919183347 46 48 0.9 5.2 0.00 0.00 0.00 76 1025.5
20210919182848 46 72 1.7 5.2 0.00 0.00 0.00 76 1025.6
20210919182342 46 66 0.0 5.2 0.00 0.00 0.00 76 1025.6
20210919181844 46 68 0.0 5.2 0.00 0.00 0.00 75 1025.5
20210919181341 46 66 0.0 4.3 0.00 0.00 0.00 75 1025.4
20210919180838 46 66 0.9 4.3 0.00 0.00 0.00 75 1025.4
20210919180341 46 66 0.0 2.6 0.00 0.00 0.00 75 1025.4
20210919175835 46 69 0.0 4.3 0.00 0.00 0.00 74 1025.4
20210919175335 47 56 0.0 8.7 0.00 0.00 0.00 74 1025.4
20210919174834 47 71 1.7 8.7 0.00 0.00 0.00 74 1025.4
20210919174334 47 80 0.9 6.1 0.00 0.00 0.00 73 1025.3
20210919173835 47 28 0.0 6.1 0.00 0.00 0.00 73 1025.3
20210919173331 47 82 0.0 6.1 0.00 0.00 0.00 73 1025.3
20210919172834 47 59 0.0 6.1 0.00 0.00 0.00 73 1025.3
20210919172331 47 65 2.6 6.1 0.00 0.00 0.00 73 1025.4
20210919171925 47 65 0.0 6.1 0.00 0.00 0.00 73 1025.3
20210919171332 47 72 0.0 7.8 0.00 0.00 0.00 73 1025.2
20210919170834 47 63 0.9 7.8 0.00 0.00 0.00 72 1025.2
20210919170333 47 56 0.9 4.3 0.00 0.00 0.00 73 1025.3
20210919165832 47 55 0.0 3.5 0.00 0.00 0.00 73 1025.2
20210919165332 47 62 0.9 3.5 0.00 0.00 0.00 73 1025.2
20210919164839 47 72 0.0 5.2 0.00 0.00 0.00 73 1025.1
20210919164335 47 69 2.6 8.7 0.00 0.00 0.00 73 1025.2
20210919163836 47 47 0.9 8.7 0.00 0.00 0.00 76 1025.2
20210919163332 47 58 0.0 4.3 0.00 0.00 0.00 73 1025.1
20210919162834 47 59 0.0 4.3 0.00 0.00 0.00 73 1025.0
20210919162332 48 49 0.0 3.5 0.00 0.00 0.00 73 1025.0
20210919161832 48 51 0.0 4.3 0.00 0.00 0.00 72 1025.0
20210919161332 48 59 0.9 7.8 0.00 0.00 0.00 72 1024.9
20210919160832 48 37 0.0 7.8 0.00 0.00 0.00 71 1024.9
20210919160330 48 65 0.0 6.1 0.00 0.00 0.00 72 1024.9
20210919155828 48 78 0.9 7.8 0.00 0.00 0.00 71 1024.9
20210919155327 48 56 1.7 7.8 0.00 0.00 0.00 71 1024.9
20210919154822 48 68 0.9 6.1 0.00 0.01 0.00 71 1024.8
20210919154319 49 61 0.9 6.1 0.00 0.01 0.00 70 1024.8
20210919153813 49 62 0.9 8.7 0.00 0.01 0.00 70 1024.8
20210919153310 49 62 0.0 8.7 0.00 0.01 0.00 70 1024.7
20210919152810 49 59 2.6 7.8 0.00 0.01 0.00 70 1024.8
20210919152306 49 68 0.9 8.7 0.00 0.01 0.00 70 1024.7
20210919151807 49 48 1.7 8.7 0.00 0.01 0.00 70 1024.7
20210919151303 49 89 3.5 6.1 0.00 0.01 0.00 68 1024.7
20210919150803 49 343 0.0 6.1 0.00 0.01 0.00 69 1024.7
20210919150304 50 58 1.7 7.8 0.00 0.01 0.00 69 1024.7
20210919145801 50 75 0.0 7.8 0.00 0.01 0.00 69 1024.7
20210919145300 50 56 2.6 6.1 0.00 0.01 0.00 68 1024.6
20210919144758 49 65 0.9 5.2 0.00 0.01 0.00 68 1024.6
20210919144301 49 63 0.0 3.5 0.00 0.01 0.00 67 1024.6
20210919143802 49 63 0.9 3.5 0.00 0.01 0.00 67 1024.7
20210919143256 49 55 0.9 10.4 0.00 0.01 0.00 66 1024.6
20210919142755 50 80 1.7 12.2 0.00 0.01 0.00 66 1024.6
20210919142254 50 51 5.2 12.2 0.00 0.01 0.00 66 1024.5
20210919141751 50 13 0.9 11.3 0.00 0.01 0.00 67 1024.5
20210919141251 50 99 1.7 6.1 0.00 0.01 0.00 67 1024.6
20210919140745 50 27 1.7 4.3 0.00 0.01 0.00 67 1024.6
20210919140242 50 4 0.9 5.2 0.00 0.01 0.00 67 1024.6
20210919135744 50 120 0.0 8.7 0.00 0.01 0.00 67 1024.6
20210919135241 49 75 1.7 8.7 0.00 0.01 0.00 66 1024.7
20210919134741 49 110 1.7 6.1 0.00 0.01 0.00 66 1024.6
20210919134239 49 66 0.9 7.8 0.00 0.01 0.00 66 1024.7
20210919133739 50 78 2.6 8.7 0.00 0.01 0.00 65 1024.7
20210919133238 50 83 1.7 8.7 0.00 0.01 0.00 66 1024.8
20210919132739 50 82 2.6 7.8 0.00 0.01 0.00 66 1024.8
20210919132238 50 30 3.5 5.2 0.00 0.01 0.00 66 1024.7
20210919131738 49 63 0.0 4.3 0.00 0.01 0.00 67 1024.7
20210919131237 49 96 0.0 5.2 0.00 0.01 0.00 67 1024.8
20210919130739 49 131 0.9 6.1 0.00 0.01 0.00 67 1024.8
20210919130236 49 62 2.6 6.1 0.00 0.01 0.00 67 1024.8
20210919125734 49 117 1.7 7.8 0.00 0.01 0.00 67 1025.0
20210919125232 48 99 1.7 7.8 0.00 0.01 0.00 67 1025.0
20210919124735 49 152 3.5 9.6 0.00 0.01 0.00 67 1025.1
20210919124234 49 51 2.6 10.4 0.00 0.01 0.00 66 1025.1
20210919123731 49 90 3.5 10.4 0.00 0.01 0.00 66 1025.1
20210919123232 49 76 1.7 7.8 0.00 0.01 0.00 65 1025.1
20210919122731 49 63 3.5 9.6 0.00 0.01 0.00 66 1025.3
20210919122224 49 345 0.9 9.6 0.00 0.01 0.00 66 1025.2
20210919121724 49 68 0.9 6.1 0.00 0.01 0.00 67 1025.2
20210919121226 49 68 1.7 8.7 0.00 0.01 0.00 67 1025.2
20210919120721 49 65 3.5 10.4 0.00 0.01 0.00 67 1025.3
20210919120219 49 48 2.6 10.4 0.00 0.01 0.00 66 1025.3
20210919115717 50 121 4.3 8.7 0.00 0.01 0.00 66 1025.4
20210919115218 50 113 1.7 7.8 0.00 0.01 0.00 67 1025.4
20210919114711 50 55 1.7 8.7 0.00 0.01 0.00 67 1025.4
20210919114212 50 107 2.6 8.7 0.00 0.01 0.00 67 1025.4
20210919113708 49 63 1.7 6.1 0.00 0.01 0.00 67 1025.5
20210919113209 49 113 0.0 11.3 0.00 0.01 0.00 67 1025.5
20210919112705 49 142 0.9 11.3 0.00 0.01 0.00 67 1025.5
20210919112201 49 116 3.5 8.7 0.00 0.02 0.00 66 1025.5
20210919111704 49 141 1.7 8.7 0.00 0.02 0.00 67 1025.7
20210919111200 49 121 1.7 6.1 0.00 0.02 0.00 66 1025.6
20210919110653 49 73 1.7 8.7 0.00 0.02 0.00 66 1025.7
20210919110151 49 97 3.5 8.7 0.00 0.02 0.00 65 1025.7
20210919105647 49 106 4.3 7.8 0.00 0.02 0.00 66 1025.7
20210919105148 49 111 0.9 11.3 0.00 0.02 0.00 66 1025.8
20210919104641 49 96 5.2 11.3 0.00 0.02 0.00 66 1025.9
20210919104140 49 133 2.6 9.6 0.00 0.02 0.00 66 1025.9
20210919103638 49 114 2.6 9.6 0.00 0.02 0.00 66 1025.9
20210919103136 49 80 2.6 9.6 0.00 0.02 0.00 66 1025.9
20210919102635 49 61 1.7 9.6 0.00 0.02 0.00 66 1025.8
20210919102135 49 127 0.9 10.4 0.00 0.02 0.00 67 1025.9
20210919101635 49 107 2.6 10.4 0.00 0.02 0.00 65 1025.9
20210919101135 49 116 2.6 13.0 0.00 0.02 0.00 66 1025.8
20210919100634 49 87 6.1 13.0 0.00 0.02 0.00 66 1025.9
20210919100131 49 147 2.6 10.4 0.00 0.02 0.00 67 1025.9
20210919095632 48 93 4.3 12.2 0.00 0.02 0.00 67 1025.9
20210919095131 48 137 3.5 12.2 0.00 0.02 0.00 67 1025.9
20210919094631 48 186 5.2 10.4 0.00 0.02 0.00 67 1026.0
20210919094131 48 97 3.5 11.3 0.00 0.02 0.00 67 1025.9
20210919093631 48 113 3.5 11.3 0.00 0.02 0.00 70 1025.9
20210919093132 48 62 1.7 10.4 0.00 0.02 0.00 67 1025.8
20210919092631 48 85 3.5 12.2 0.00 0.02 0.00 67 1025.8
20210919092129 48 90 3.5 12.2 0.00 0.02 0.00 68 1025.8
20210919091626 48 121 2.6 9.6 0.00 0.02 0.00 68 1025.8
20210919091126 48 100 3.5 9.6 0.00 0.02 0.00 68 1025.8
20210919090618 48 37 1.7 9.6 0.00 0.02 0.00 68 1025.9
20210919090112 48 109 3.5 10.4 0.00 0.02 0.00 68 1025.8
20210919085608 48 87 3.5 10.4 0.00 0.02 0.00 69 1026.0
20210919085109 48 75 1.7 10.4 0.00 0.02 0.00 70 1025.9
20210919084609 48 55 0.9 10.4 0.00 0.02 0.00 70 1025.9
20210919084108 48 114 2.6 9.6 0.00 0.02 0.00 70 1025.8
20210919083604 48 107 1.7 6.1 0.00 0.02 0.00 71 1025.8
20210919083106 48 161 2.6 7.8 0.00 0.02 0.00 70 1025.7
20210919082603 48 65 3.5 7.8 0.00 0.02 0.00 71 1025.8
20210919082107 47 76 2.6 9.6 0.00 0.02 0.00 71 1025.8
20210919081602 47 45 0.0 9.6 0.00 0.02 0.00 71 1025.8
20210919081103 47 66 0.9 6.1 0.00 0.02 0.00 71 1025.8
20210919080601 47 44 2.6 6.1 0.00 0.02 0.00 71 1025.9
20210919080103 47 107 0.0 4.3 0.00 0.02 0.00 72 1025.7
20210919075603 47 61 1.7 4.3 0.00 0.02 0.00 72 1025.6
20210919075059 47 78 0.9 5.2 0.00 0.02 0.00 72 1025.7
20210919074557 47 71 0.0 4.3 0.00 0.02 0.00 73 1025.7
20210919074053 47 61 0.0 5.2 0.00 0.02 0.00 73 1025.7
20210919073552 47 65 0.0 5.2 0.00 0.02 0.00 73 1025.7
20210919073054 47 69 0.0 5.2 0.00 0.02 0.00 73 1025.8
20210919072547 46 86 0.9 6.1 0.00 0.02 0.00 74 1025.7
20210919072047 46 65 1.7 8.7 0.00 0.02 0.00 74 1025.7
20210919071546 46 63 1.7 8.7 0.00 0.02 0.00 74 1025.7
20210919071046 46 83 0.9 6.1 0.00 0.02 0.00 75 1025.7
20210919070544 46 55 0.9 5.2 0.00 0.02 0.00 74 1025.7
20210919070039 46 58 1.7 5.2 0.00 0.02 0.00 74 1025.7
20210919065539 46 63 1.7 5.2 0.00 0.02 0.00 75 1025.7
20210919065037 46 87 0.0 4.3 0.00 0.02 0.00 76 1025.7
20210919064537 46 39 0.9 3.5 0.00 0.02 0.00 76 1025.8
20210919064035 46 54 0.9 5.2 0.00 0.02 0.00 76 1025.7
20210919063534 46 47 0.9 5.2 0.00 0.02 0.00 76 1025.7
20210919063031 46 59 0.0 6.1 0.00 0.02 0.00 77 1025.7
20210919062536 46 83 0.0 6.1 0.00 0.02 0.00 77 1025.7
20210919062031 46 58 0.9 7.8 0.00 0.02 0.00 78 1025.8
20210919061531 46 55 0.0 7.8 0.00 0.02 0.00 78 1025.7